Dewpoint
54 55 55 55 55 55 55 56 56 56 56 56 56 57 57 57 57 57 57 58 58 58 58 58 58 58 58 58 57 57 58 53 49 51 49 47 50 61 62 63 59 61 62 34 30 25 22 24 24 23 18 15 15 16 17 18 14 12 14 15 15 13 10 10 9 9 9 10 10 9 8 8 7 7 7 8 7 7 7 5 7 9 4 14 34 51 69 69
54 55 55 55 55 56 55 56 56 56 56 56 57 57 57 57 57 57 57 57 57 57 57 58 58 58 58 57 57 57 56 52 47 44 44 55 61 63 62 61 60 60 59 28 24 23 20 20 20 19 16 14 16 14 14 11 13 12 13 15 15 14 10 10 10 9 12 9 10 9 9 8 7 7 8 8 10 6 6 6 6 14 11 26 40 66 68 67
54 54 55 55 55 55 55 56 56 56 56 56 57 57 57 57 57 57 57 57 57 57 57 57 57 57 57 57 57 57 53 49 47 46 46 62 62 61 62 60 60 61 35 25 27 22 17 18 18 16 15 14 15 12 14 8 13 12 14 13 13 12 11 12 10 10 10 10 9 9 8 8 8 8 8 7 7 7 6 9 11 8 41 59 62 67 68 66
54 54 54 55 55 55 56 56 56 56 56 56 56 56 57 57 57 57 57 57 57 57 57 57 57 57 57 57 58 56 54 51 45 36 37 63 61 62 62 60 60 57 31 26 27 20 15 13 12 15 14 14 14 14 12 9 11 11 12 10 10 11 11 11 11 11 11 10 9 9 8 7 7 7 8 7 6 6 7 5 6 20 42 59 64 66 67 66
54 54 54 55 55 55 55 56 56 56 56 56 56 56 56 56 57 57 57 57 57 57 57 57 57 57 57 57 57 55 50 42 32 33 54 61 63 59 62 60 61 39 29 26 28 15 13 10 8 10 12 12 13 13 11 12 12 13 11 12 12 13 11 12 12 11 11 11 9 8 7 6 7 8 6 7 6 10 6 8 8 8 22 52 62 64 65 65
54 54 54 55 55 55 56 56 56 56 56 56 56 56 57 56 56 56 57 57 57 57 57 57 57 57 57 57 55 51 49 23 35 35 61 63 61 63 60 62 61 45 26 27 30 15 10 8 8 8 10 11 12 11 10 11 14 12 13 13 13 13 12 13 12 11 11 10 8 8 7 8 7 7 7 6 5 8 9 8 7 7 6 55 58 63 61 63
54 54 54 55 55 55 56 56 56 56 56 57 56 57 57 57 57 57 56 57 57 57 57 56 57 57 57 57 52 49 43 36 37 43 60 63 62 62 63 61 62 39 33 30 28 16 10 9 9 9 10 12 12 11 10 10 11 11 11 13 14 14 14 13 12 11 10 9 8 8 8 6 6 6 7 7 7 7 8 10 10 9 9 19 35 63 59 60
54 54 55 55 55 55 56 56 56 56 56 57 57 57 57 56 56 56 56 56 56 56 56 57 57 57 58 50 49 45 39 36 41 44 62 62 60 51 59 35 31 29 29 32 30 12 10 8 9 10 11 11 11 10 10 10 11 11 11 12 11 13 13 12 11 11 10 9 8 7 7 7 6 6 7 7 8 8 9 10 10 10 9 15 52 61 60 54
54 54 55 55 55 55 55 56 56 56 56 57 57 56 56 56 56 56 56 56 56 57 57 57 57 57 58 54 46 38 34 37 41 43 50 40 34 36 31 25 27 28 30 30 24 11 8 5 7 9 9 8 8 8 10 10 10 11 10 12 12 11 12 11 10 10 9 8 7 7 7 7 7 8 7 9 8 11 13 12 11 10 10 11 30 58 58 52
54 54 54 55 55 55 55 55 56 56 56 57 57 56 56 56 55 55 56 57 57 57 57 57 57 58 54 43 35 31 35 40 38 38 29 29 29 29 25 20 22 27 27 23 15 10 8 6 7 7 7 8 10 10 10 10 11 13 12 12 13 13 13 12 10 10 9 8 8 8 8 8 8 8 9 19 15 14 13 11 11 11 26 36 38 53 53 51
54 54 54 54 55 55 55 55 56 56 56 56 56 56 55 55 55 56 57 58 58 57 57 57 58 56 48 42 36 30 34 34 37 29 25 29 27 23 21 22 19 22 23 20 13 11 10 9 9 10 10 10 11 12 12 12 11 10 10 10 10 11 11 11 11 11 9 7 10 9 7 9 9 9 10 10 11 14 15 11 10 12 17 17 26 38 46 54
54 54 54 54 54 54 55 55 56 56 56 56 55 54 54 55 55 58 58 57 57 58 57 58 58 54 48 45 43 28 31 32 38 30 27 30 27 23 22 24 20 19 20 18 17 16 14 13 12 12 10 11 10 11 11 11 11 10 9 8 9 10 10 11 11 11 8 7 10 9 10 10 10 8 10 10 12 16 17 11 11 11 11 14 25 32 39 47
54 54 54 54 54 54 55 55 56 56 56 54 54 53 55 55 57 59 59 58 58 57 58 58 58 52 49 47 29 31 31 32 37 34 29 30 27 25 25 26 23 20 18 18 21 22 21 18 17 14 13 11 11 10 11 12 11 10 9 7 8 9 9 8 9 10 8 9 12 11 9 10 10 10 13 13 15 15 15 17 15 11 11 12 25 23 30 46
54 53 53 53 53 54 55 55 55 56 55 54 53 53 54 56 58 59 58 59 58 58 58 58 55 49 48 31 30 30 32 35 34 35 32 30 26 25 26 25 25 24 22 22 23 23 22 20 19 17 15 13 12 13 12 11 12 10 11 10 9 9 8 9 7 8 10 12 13 12 12 12 10 10 10 13 15 15 15 9 16 15 13 15 16 16 28 47
53 53 53 53 54 54 54 55 55 54 54 53 53 52 54 56 58 59 59 58 59 58 58 57 54 51 51 31 31 31 70 36 31 34 36 31 28 25 25 26 26 27 26 25 24 24 22 21 20 18 16 17 15 13 11 10 11 12 11 10 10 6 9 13 12 11 11 11 13 14 14 12 11 11 10 9 9 10 16 17 18 17 13 15 17 23 19 36
53 53 53 53 53 54 54 54 53 53 53 53 52 52 54 56 58 59 59 59 58 58 57 51 47 46 40 33 32 50 35 32 32 33 33 32 29 26 26 26 26 26 26 26 26 25 23 22 20 19 18 18 16 15 13 12 13 14 13 15 13 10 11 12 12 13 13 14 15 15 13 14 13 13 14 14 13 12 14 17 24 19 18 19 17 24 36 36
52 53 53 53 54 54 54 53 53 53 52 52 52 52 54 56 57 58 58 57 55 54 50 50 43 43 37 32 32 33 32 29 30 30 32 31 29 28 26 26 26 26 26 26 26 25 23 20 20 19 18 17 17 16 16 17 17 16 16 17 15 13 13 12 13 12 14 11 10 10 14 15 15 15 15 15 15 6 13 16 18 20 22 29 36 26 34 41
53 53 53 54 54 53 53 54 54 53 51 51 51 51 50 57 57 54 55 53 47 45 45 47 46 40 30 34 32 28 28 28 28 28 29 30 30 30 28 27 27 26 25 25 25 24 24 21 19 18 18 17 16 16 17 13 18 19 18 19 15 14 13 12 12 14 14 13 11 13 11 13 14 15 16 16 16 16 17 18 19 19 22 30 23 24 39 38
53 53 53 53 52 52 53 53 53 52 51 51 52 54 53 53 51 50 44 46 47 48 46 39 43 31 26 29 29 30 28 28 27 27 26 28 30 29 28 29 27 24 22 22 23 24 23 21 21 22 20 20 20 19 18 18 18 17 16 15 14 14 14 13 14 13 14 14 13 15 15 14 15 15 15 15 15 16 17 22 20 20 21 26 31 29 33 35
53 53 53 52 51 51 51 52 51 51 50 49 48 50 51 46 48 45 46 44 33 26 25 26 26 27 27 26 26 29 29 28 26 27 27 28 29 28 27 26 24 24 23 23 23 23 22 22 24 24 21 19 19 20 18 18 18 17 16 16 15 14 15 14 16 12 14 15 15 9 10 14 16 16 15 15 17 17 18 20 21 19 20 24 34 32 42 47
53 52 52 53 51 51 51 50 50 50 49 48 47 33 32 34 35 32 37 28 27 27 25 26 25 25 25 26 27 28 28 28 27 27 28 30 28 27 25 24 24 23 23 23 22 23 22 23 24 23 22 22 22 22 20 18 18 17 17 17 17 16 15 18 16 17 16 15 16 17 15 15 15 17 17 18 17 16 16 19 23 20 23 34 36 39 39 41
53 52 52 52 53 50 50 50 50 49 49 51 33 29 29 32 35 38 37 30 27 27 24 24 24 24 25 26 27 28 27 26 26 27 29 29 28 27 26 24 24 23 24 23 24 25 27 24 22 23 21 22 22 21 19 18 17 18 17 18 17 15 16 16 16 17 18 17 15 14 14 14 16 16 18 19 19 21 20 20 20 24 32 28 34 36 40 41
52 52 52 52 50 49 49 49 48 49 51 39 28 27 30 32 34 37 39 38 36 25 24 23 22 22 23 25 25 26 24 23 21 24 26 27 27 26 25 24 24 23 23 22 20 25 25 20 21 21 22 22 20 18 17 17 18 17 17 17 11 13 13 15 11 16 17 16 15 16 15 16 16 17 20 21 19 22 21 20 20 20 25 28 38 38 42 45
52 52 52 51 52 49 49 48 48 56 55 30 28 28 30 34 35 37 40 39 27 24 24 24 23 23 23 22 24 24 22 23 23 23 26 25 24 24 23 23 23 22 20 21 20 19 20 20 20 19 20 20 18 17 16 16 15 16 16 13 15 15 16 16 16 17 16 16 16 15 14 11 17 17 19 20 20 17 18 18 23 27 25 37 38 39 44 48
52 52 51 51 50 49 47 48 46 39 34 32 30 31 30 35 41 40 41 44 36 26 26 25 24 23 22 26 25 22 22 23 23 24 26 24 24 23 23 24 23 20 19 20 20 20 18 18 19 20 19 20 19 17 16 16 12 14 18 13 16 17 16 15 15 15 15 16 15 14 15 17 20 17 16 19 20 22 24 23 22 26 37 38 38 42 45 45
52 52 49 50 49 48 48 50 41 42 30 32 33 32 32 36 38 43 43 40 26 21 27 22 23 21 24 22 23 21 24 21 23 23 24 25 28 23 24 22 23 20 20 20 20 20 18 19 19 18 15 18 19 18 17 17 17 19 17 17 16 16 15 15 15 15 15 15 14 16 16 17 18 18 22 22 20 20 23 25 23 26 27 29 33 35 41 44
53 48 48 48 48 48 46 39 42 42 31 32 35 35 34 41 47 46 47 38 27 18 21 20 19 22 23 20 21 21 20 21 23 24 25 26 23 26 22 20 22 22 20 22 24 20 19 18 17 18 19 19 19 18 17 19 18 17 17 16 15 14 15 15 14 15 15 16 16 16 16 18 19 19 21 22 23 22 25 25 27 26 31 32 33 33 38 40
48 48 48 47 47 48 47 47 47 34 32 36 36 33 37 45 45 49 43 32 26 22 21 19 19 23 20 17 18 18 18 18 18 22 24 24 25 22 22 20 19 20 22 20 20 19 18 17 17 17 18 18 17 17 20 19 17 15 16 15 15 15 16 16 16 16 16 16 16 17 19 19 21 25 24 22 21 24 28 28 33 30 37 36 36 35 37 37
47 47 47 47 48 49 55 51 47 36 35 37 36 33 40 49 47 49 43 32 29 21 27 22 23 22 17 15 18 18 16 18 14 16 19 22 23 22 19 20 20 20 20 19 16 16 18 18 18 18 18 17 20 21 20 19 17 17 17 17 16 17 17 17 16 16 11 13 17 17 18 18 21 24 22 27 22 23 26 28 34 39 37 36 38 37 39 38
47 46 46 47 49 58 60 56 51 37 40 40 39 39 46 50 51 39 31 26 18 27 21 18 19 15 16 14 15 18 14 17 16 17 15 18 24 23 22 22 20 20 20 20 19 18 19 24 25 20 20 21 22 22 20 18 17 17 16 16 15 14 14 17 18 18 19 20 18 17 17 17 18 19 23 25 32 26 25 32 38 40 39 37 38 37 38 39
46 46 46 47 50 40 42 41 37 39 41 43 43 49 51 52 47 35 19 26 17 26 25 22 16 17 15 13 15 12 12 16 16 16 15 20 19 23 24 20 22 21 20 17 17 18 19 16 16 24 25 23 22 20 20 19 17 15 14 13 13 16 17 19 19 19 20 16 16 15 16 16 18 22 21 32 36 34 37 38 40 40 37 37 38 36 38 41
45 45 45 47 48 45 42 40 40 41 40 44 46 49 50 44 46 23 26 24 22 29 22 16 16 17 16 14 12 14 12 12 16 14 13 13 16 17 26 25 21 18 18 22 20 17 17 16 15 20 26 23 21 19 15 17 16 14 13 15 16 16 18 18 18 18 16 15 17 16 16 16 17 19 26 29 35 41 42 40 39 39 37 38 36 36 37 40
44 44 46 49 49 51 46 44 44 46 46 45 50 48 46 38 24 23 25 18 33 32 20 18 19 17 15 15 15 14 14 12 17 17 15 16 16 24 25 23 21 20 20 27 19 20 21 17 18 17 19 23 21 16 15 16 15 14 14 16 17 16 15 19 18 19 19 17 18 16 16 14 17 16 18 35 39 40 40 40 39 39 41 41 37 37 35 37
43 44 50 52 52 49 48 55 52 41 44 50 50 46 45 31 28 32 25 22 23 19 19 20 19 18 19 16 15 16 15 17 20 18 16 18 19 28 23 22 22 19 21 25 20 24 19 17 21 20 22 20 18 16 17 15 16 13 12 13 17 16 19 20 16 17 17 17 16 16 15 18 16 20 18 36 38 38 39 38 41 40 39 41 36 36 36 37
44 49 60 62 61 60 59 50 48 46 49 47 46 43 36 28 31 25 30 23 20 20 21 21 21 21 20 19 18 20 14 19 19 17 17 19 24 23 25 23 22 22 22 21 27 25 16 16 15 22 21 18 16 19 19 16 12 11 12 11 13 16 19 15 18 18 18 16 17 18 20 19 19 22 34 36 34 38 39 39 41 39 38 38 37 37 38 38
47 51 54 53 41 34 34 33 43 48 48 46 42 33 24 27 26 24 28 21 21 22 19 25 27 22 21 21 20 20 24 22 17 19 20 23 22 23 23 23 20 23 22 24 27 21 20 22 21 23 20 17 19 20 19 17 16 15 12 12 11 15 13 19 22 18 22 19 17 23 21 17 18 21 32 39 38 36 36 37 37 38 38 40 40 40 40 41
44 51 49 47 44 34 36 37 39 48 48 44 41 27 28 27 21 21 29 20 21 21 27 28 30 28 23 23 20 21 27 21 21 23 24 24 26 25 24 25 26 24 22 24 25 22 25 24 24 22 20 19 19 20 18 17 17 17 15 14 15 14 13 19 14 19 17 15 19 17 16 17 15 18 32 32 33 35 33 35 35 37 36 36 37 38 38 40
45 49 52 49 38 37 36 40 45 47 43 43 29 35 22 27 24 22 23 21 22 23 25 32 32 26 28 24 22 25 28 21 25 21 25 22 27 28 26 23 25 24 24 24 23 23 23 21 21 21 20 20 21 19 16 17 18 17 17 16 13 21 18 18 20 16 17 17 15 16 15 17 17 20 29 28 30 33 35 34 34 34 35 35 34 35 36 38
49 50 46 40 38 38 40 44 47 45 44 40 37 28 25 23 24 23 24 22 26 27 28 32 30 33 30 26 29 28 28 26 23 25 28 26 24 32 25 25 23 24 24 23 23 26 25 25 26 25 20 21 18 15 16 20 16 17 18 16 14 14 18 18 21 17 18 18 19 14 13 17 20 19 22 33 34 35 33 33 33 32 33 33 33 33 32 34
45 42 40 44 39 43 43 46 44 43 40 26 30 31 24 27 25 26 23 22 26 24 30 28 28 31 32 32 29 31 32 29 27 28 24 27 26 26 24 26 23 22 22 21 20 22 26 34 26 26 23 19 17 18 18 20 20 18 16 15 15 19 16 16 22 15 17 19 16 16 17 22 23 14 20 29 30 33 32 32 32 31 32 31 32 33 33 32
49 47 42 46 41 44 44 41 39 29 31 34 27 24 26 26 22 23 25 24 23 24 23 25 26 28 32 31 29 33 35 33 29 27 25 26 25 27 25 25 25 23 21 20 23 29 29 29 26 26 21 19 20 20 21 20 18 16 17 18 18 20 20 20 21 19 18 19 19 16 16 19 26 17 18 27 31 30 29 30 30 30 30 32 32 33 34 34
47 39 37 43 47 46 41 37 35 34 31 28 26 22 26 35 23 24 22 22 23 22 25 26 27 34 34 34 33 34 35 32 30 28 28 28 34 29 25 25 24 21 19 23 23 29 32 32 28 23 20 21 22 22 21 19 17 18 18 19 19 21 21 18 18 20 20 19 17 17 18 19 21 19 17 27 29 28 29 29 30 29 30 31 31 31 33 35
38 36 41 42 48 43 39 35 35 36 33 28 26 24 23 25 25 24 22 22 20 24 25 27 28 33 33 37 37 35 33 34 31 29 25 22 22 24 25 25 25 24 20 22 25 26 29 26 24 21 20 19 17 17 17 17 16 20 21 20 19 21 18 19 19 21 18 19 18 18 18 20 24 20 19 22 29 30 31 30 30 30 30 30 29 29 28 29
39 39 39 41 48 44 37 33 28 29 34 32 33 29 26 25 24 23 23 24 27 26 29 30 28 30 32 32 34 34 35 32 29 25 25 26 28 28 28 27 24 24 20 27 29 26 22 27 21 19 18 18 18 16 15 18 18 21 22 23 20 18 17 17 16 21 19 18 16 16 15 17 26 22 19 18 17 17 17 24 29 27 28 28 27 27 27 28
39 43 42 42 45 45 35 34 32 32 34 35 35 32 32 29 29 26 24 21 25 26 28 28 27 29 34 34 33 32 33 34 34 31 28 25 26 30 28 27 23 23 21 32 35 23 23 25 23 20 19 18 17 15 17 22 22 23 21 19 19 17 19 20 19 17 17 19 16 16 16 15 18 19 18 18 19 20 22 21 28 25 27 26 27 27 27 26
40 36 39 37 40 40 39 38 36 34 33 37 36 32 30 30 28 27 27 25 22 25 27 25 25 26 27 28 31 34 34 31 32 33 29 28 27 27 26 26 24 21 37 37 32 26 27 29 27 25 23 20 21 22 26 26 23 19 22 20 18 21 19 20 21 19 17 21 20 18 15 16 17 18 19 21 21 20 20 21 20 16 20 24 24 24 24 24
44 39 37 35 42 36 34 35 34 35 33 39 32 33 35 33 31 29 26 30 27 27 26 29 28 29 30 29 32 33 35 33 32 33 33 31 28 26 26 24 23 32 42 32 31 26 27 24 27 28 28 26 27 26 25 24 22 20 20 23 22 20 21 23 23 19 22 20 18 21 21 22 21 20 19 20 18 18 20 18 19 23 23 22 20 21 26 19
39 41 39 43 38 34 34 33 32 32 35 35 36 36 34 34 34 35 28 26 29 31 29 28 28 27 26 29 34 34 36 34 33 33 32 31 28 27 27 25 23 39 34 25 24 30 30 27 29 29 27 23 21 21 23 25 25 25 23 22 22 22 24 24 24 21 24 22 19 23 22 22 20 19 18 17 18 19 15 17 18 18 18 19 19 17 16 16
43 41 40 42 37 38 37 37 38 37 37 37 36 36 36 36 37 36 36 36 33 32 28 29 29 26 27 27 30 31 34 33 31 33 34 33 32 34 34 32 28 27 23 26 25 33 31 27 27 24 24 25 25 24 23 22 21 20 19 19 20 21 23 23 22 21 21 21 20 20 21 23 20 19 18 19 19 18 17 18 18 15 15 15 14 16 15 14
43 41 39 43 43 40 40 39 38 37 38 40 36 37 34 35 35 35 34 34 34 36 34 33 30 28 27 26 29 30 33 34 34 33 37 38 37 36 35 33 29 27 24 26 27 31 29 25 28 26 24 24 22 19 18 18 19 19 17 18 18 20 19 21 22 22 23 20 20 20 21 20 19 19 18 19 20 16 15 13 13 17 14 16 15 13 11 11
47 47 46 41 39 39 40 39 37 37 36 38 37 37 36 35 35 35 35 32 35 36 34 34 33 35 32 31 31 30 31 31 32 33 34 36 34 32 31 31 24 27 25 26 29 30 30 26 28 27 24 24 23 20 17 16 18 18 19 19 18 19 20 20 22 24 23 21 21 21 19 17 16 18 19 18 17 15 15 16 16 15 13 16 16 15 15 14
48 45 45 42 38 40 38 39 39 37 34 37 37 36 34 33 31 33 35 32 31 33 35 35 36 36 36 36 35 34 35 35 33 34 32 29 27 26 24 24 24 26 26 26 29 25 27 25 24 23 20 21 21 16 18 20 20 18 20 21 23 24 23 21 20 21 20 21 19 19 15 16 16 17 15 16 17 16 16 14 15 14 13 9 14 15 14 15